Time,TemperatureF,DewpointF,PressureIn,WindDirection,WindDirectionDegrees,WindSpeedMPH,WindSpeedGustMPH,Humidity,HourlyPrecipIn,Conditions,Clouds,dailyrainin,SoftwareType,DateUTC
2013-01-12 00:01:00,35.8,34.5,30.13,SSE,167,0.0,0.0,95,0.00,,,0.00,Wunderground v.1.15,2013-01-12 05:01:00,
2013-01-12 00:07:00,35.8,34.5,30.13,SSE,167,0.0,0.0,95,0.00,,,0.01,Wunderground v.1.15,2013-01-12 05:07:00,
2013-01-12 00:09:00,35.6,34.3,30.13,SSE,167,0.0,0.0,95,0.00,,,0.01,Wunderground v.1.15,2013-01-12 05:09:00,
2013-01-12 00:12:00,35.6,34.3,30.13,SSE,167,0.0,0.0,95,0.00,,,0.01,Wunderground v.1.15,2013-01-12 05:12:00,
2013-01-12 00:17:00,35.6,34.3,30.13,SSE,167,0.0,0.0,95,0.00,,,0.01,Wunderground v.1.15,2013-01-12 05:17:00,
2013-01-12 00:23:00,35.8,34.5,30.12,SSE,167,0.0,0.0,95,0.00,,,0.01,Wunderground v.1.15,2013-01-12 05:23:00,
2013-01-12 00:29:00,35.8,34.5,30.12,SSE,167,0.0,0.0,95,0.00,,,0.01,Wunderground v.1.15,2013-01-12 05:29:00,
2013-01-12 00:35:00,35.8,34.5,30.12,SSE,167,0.0,0.0,95,0.00,,,0.01,Wunderground v.1.15,2013-01-12 05:35:00,
2013-01-12 00:41:00,35.8,34.5,30.12,SSE,167,0.0,0.0,95,0.00,,,0.01,Wunderground v.1.15,2013-01-12 05:41:00,
2013-01-12 00:47:00,35.8,34.5,30.12,SSE,167,0.0,0.0,95,0.00,,,0.01,Wunderground v.1.15,2013-01-12 05:47:00,
2013-01-12 00:53:00,35.8,34.5,30.12,SSE,167,0.0,0.0,95,0.00,,,0.01,Wunderground v.1.15,2013-01-12 05:53:00,
2013-01-12 00:59:00,35.6,34.3,30.12,SSE,167,0.0,0.0,95,0.00,,,0.01,Wunderground v.1.15,2013-01-12 05:59:00,
2013-01-12 01:05:00,35.6,34.3,30.12,SSE,167,0.0,0.0,95,0.00,,,0.01,Wunderground v.1.15,2013-01-12 06:05:00,
2013-01-12 01:11:00,35.6,34.3,30.12,SSE,167,0.0,0.0,95,0.00,,,0.01,Wunderground v.1.15,2013-01-12 06:11:00,
2013-01-12 01:17:00,35.8,34.5,30.12,SSE,167,0.0,0.0,95,0.00,,,0.01,Wunderground v.1.15,2013-01-12 06:17:00,
2013-01-12 01:23:00,35.9,34.6,30.11,SSE,167,0.0,0.0,95,0.00,,,0.01,Wunderground v.1.15,2013-01-12 06:23:00,
2013-01-12 01:29:00,36.0,34.7,30.12,SSE,167,0.0,0.0,95,0.00,,,0.01,Wunderground v.1.15,2013-01-12 06:29:00,
2013-01-12 01:35:00,36.0,34.7,30.12,SSE,167,0.0,1.0,95,0.00,,,0.01,Wunderground v.1.15,2013-01-12 06:35:00,
2013-01-12 01:41:00,36.2,34.9,30.12,NNW,332,0.0,2.0,95,0.00,,,0.02,Wunderground v.1.15,2013-01-12 06:41:00,
2013-01-12 01:47:00,36.2,34.9,30.12,NNW,332,0.0,0.0,95,0.00,,,0.02,Wunderground v.1.15,2013-01-12 06:47:00,
2013-01-12 01:53:00,36.2,34.9,30.12,NNW,332,0.0,0.0,95,0.00,,,0.02,Wunderground v.1.15,2013-01-12 06:53:00,
2013-01-12 02:00:00,36.2,34.9,30.12,NNW,332,0.0,0.0,95,0.00,,,0.02,Wunderground v.1.15,2013-01-12 07:00:00,
2013-01-12 02:06:00,36.2,34.9,30.12,NNW,332,0.0,0.0,95,0.00,,,0.02,Wunderground v.1.15,2013-01-12 07:06:00,
2013-01-12 02:12:00,36.2,34.9,30.12,NNW,332,0.0,0.0,95,0.00,,,0.02,Wunderground v.1.15,2013-01-12 07:12:00,
2013-01-12 02:18:00,36.0,34.7,30.12,NNW,332,0.0,0.0,95,0.00,,,0.02,Wunderground v.1.15,2013-01-12 07:18:00,
2013-01-12 02:24:00,36.0,34.7,30.12,NNW,332,0.0,0.0,95,0.00,,,0.02,Wunderground v.1.15,2013-01-12 07:24:00,
2013-01-12 02:30:00,36.0,34.7,30.11,NNW,332,0.0,0.0,95,0.00,,,0.02,Wunderground v.1.15,2013-01-12 07:30:00,
2013-01-12 02:36:00,35.9,34.6,30.11,NNW,332,0.0,0.0,95,0.00,,,0.02,Wunderground v.1.15,2013-01-12 07:36:00,
2013-01-12 02:42:00,35.9,34.6,30.12,NNW,332,0.0,0.0,95,0.00,,,0.02,Wunderground v.1.15,2013-01-12 07:42:00,
2013-01-12 02:48:00,35.9,34.6,30.12,NNW,332,0.0,0.0,95,0.00,,,0.02,Wunderground v.1.15,2013-01-12 07:48:00,
2013-01-12 02:54:00,35.8,34.5,30.13,NNW,332,0.0,0.0,95,0.00,,,0.02,Wunderground v.1.15,2013-01-12 07:54:00,
2013-01-12 03:00:00,35.8,34.5,30.13,NNW,332,0.0,0.0,95,0.00,,,0.02,Wunderground v.1.15,2013-01-12 08:00:00,
2013-01-12 03:06:00,35.8,34.5,30.13,NNW,332,0.0,0.0,95,0.00,,,0.02,Wunderground v.1.15,2013-01-12 08:06:00,
2013-01-12 03:12:00,35.6,34.3,30.13,NNW,332,0.0,0.0,95,0.00,,,0.02,Wunderground v.1.15,2013-01-12 08:12:00,
2013-01-12 03:18:00,35.6,34.3,30.13,NNW,332,0.0,0.0,95,0.00,,,0.02,Wunderground v.1.15,2013-01-12 08:18:00,
2013-01-12 03:24:00,35.6,34.3,30.13,NNW,332,0.0,0.0,95,0.00,,,0.02,Wunderground v.1.15,2013-01-12 08:24:00,
2013-01-12 03:30:00,35.6,34.3,30.12,NNW,332,0.0,0.0,95,0.00,,,0.02,Wunderground v.1.15,2013-01-12 08:30:00,
2013-01-12 03:36:00,35.8,34.8,30.12,NNW,332,0.0,0.0,96,0.00,,,0.02,Wunderground v.1.15,2013-01-12 08:36:00,
2013-01-12 03:42:00,35.6,34.3,30.12,NNW,332,0.0,0.0,95,0.00,,,0.02,Wunderground v.1.15,2013-01-12 08:42:00,
2013-01-12 03:48:00,35.6,34.6,30.12,NNW,332,0.0,0.0,96,0.00,,,0.02,Wunderground v.1.15,2013-01-12 08:48:00,
2013-01-12 03:54:00,35.6,34.6,30.11,NNW,332,0.0,0.0,96,0.00,,,0.02,Wunderground v.1.15,2013-01-12 08:54:00,
2013-01-12 04:00:00,35.6,34.6,30.11,NNW,332,0.0,0.0,96,0.00,,,0.02,Wunderground v.1.15,2013-01-12 09:00:00,
2013-01-12 04:06:00,35.6,34.3,30.11,NNW,332,0.0,0.0,95,0.00,,,0.02,Wunderground v.1.15,2013-01-12 09:06:00,
2013-01-12 04:12:00,35.5,34.2,30.10,NNW,332,0.0,0.0,95,0.00,,,0.02,Wunderground v.1.15,2013-01-12 09:12:00,
2013-01-12 04:18:00,35.5,34.2,30.10,NNW,332,0.0,0.0,95,0.00,,,0.02,Wunderground v.1.15,2013-01-12 09:18:00,
2013-01-12 04:24:00,35.3,34.3,30.10,NNW,332,0.0,0.0,96,0.00,,,0.02,Wunderground v.1.15,2013-01-12 09:24:00,
2013-01-12 04:30:00,35.3,34.3,30.10,NNW,332,0.0,0.0,96,0.00,,,0.02,Wunderground v.1.15,2013-01-12 09:30:00,
2013-01-12 04:36:00,35.3,34.3,30.10,NNW,332,0.0,0.0,96,0.00,,,0.02,Wunderground v.1.15,2013-01-12 09:36:00,
2013-01-12 04:42:00,35.3,34.3,30.10,NNW,332,0.0,0.0,96,0.00,,,0.02,Wunderground v.1.15,2013-01-12 09:42:00,
2013-01-12 04:48:00,35.3,34.3,30.10,NNW,332,0.0,0.0,96,0.00,,,0.02,Wunderground v.1.15,2013-01-12 09:48:00,
2013-01-12 04:54:00,35.3,34.3,30.10,NNW,332,0.0,0.0,96,0.00,,,0.02,Wunderground v.1.15,2013-01-12 09:54:00,
2013-01-12 05:00:00,35.2,34.2,30.09,NNW,332,0.0,0.0,96,0.00,,,0.02,Wunderground v.1.15,2013-01-12 10:00:00,
2013-01-12 05:06:00,35.2,34.2,30.10,NNW,332,0.0,0.0,96,0.00,,,0.02,Wunderground v.1.15,2013-01-12 10:06:00,
2013-01-12 05:12:00,35.2,34.2,30.11,NNW,332,0.0,0.0,96,0.00,,,0.02,Wunderground v.1.15,2013-01-12 10:12:00,
2013-01-12 05:18:00,35.2,34.2,30.11,NNW,332,0.0,0.0,96,0.00,,,0.02,Wunderground v.1.15,2013-01-12 10:18:00,
2013-01-12 05:24:00,35.2,34.2,30.11,NNW,332,0.0,0.0,96,0.00,,,0.02,Wunderground v.1.15,2013-01-12 10:24:00,
2013-01-12 05:30:00,35.2,34.2,30.11,NNW,332,0.0,0.0,96,0.00,,,0.02,Wunderground v.1.15,2013-01-12 10:30:00,
2013-01-12 05:36:00,35.2,34.2,30.11,NNW,332,0.0,0.0,96,0.00,,,0.02,Wunderground v.1.15,2013-01-12 10:36:00,
2013-01-12 05:42:00,35.2,34.2,30.11,NNW,332,0.0,0.0,96,0.00,,,0.02,Wunderground v.1.15,2013-01-12 10:42:00,
2013-01-12 05:48:00,35.2,34.2,30.12,NNW,332,0.0,0.0,96,0.00,,,0.02,Wunderground v.1.15,2013-01-12 10:48:00,
2013-01-12 05:54:00,35.2,34.2,30.13,NNW,332,0.0,0.0,96,0.00,,,0.02,Wunderground v.1.15,2013-01-12 10:54:00,
2013-01-12 06:00:00,35.2,34.2,30.13,NNW,332,0.0,0.0,96,0.00,,,0.02,Wunderground v.1.15,2013-01-12 11:00:00,
2013-01-12 06:06:00,35.2,34.2,30.13,NNW,332,0.0,0.0,96,0.00,,,0.02,Wunderground v.1.15,2013-01-12 11:06:00,
2013-01-12 06:12:00,35.2,34.2,30.13,NNW,332,0.0,0.0,96,0.00,,,0.02,Wunderground v.1.15,2013-01-12 11:12:00,
2013-01-12 06:18:00,35.2,34.2,30.13,NNW,332,0.0,0.0,96,0.00,,,0.03,Wunderground v.1.15,2013-01-12 11:18:00,
2013-01-12 06:24:00,35.2,34.2,30.13,NNW,332,0.0,0.0,96,0.00,,,0.03,Wunderground v.1.15,2013-01-12 11:24:00,
2013-01-12 06:30:00,35.3,34.3,30.13,NNW,332,0.0,0.0,96,0.00,,,0.03,Wunderground v.1.15,2013-01-12 11:30:00,
2013-01-12 06:36:00,35.2,34.2,30.13,NNW,332,0.0,0.0,96,0.00,,,0.03,Wunderground v.1.15,2013-01-12 11:36:00,
2013-01-12 06:42:00,35.2,34.2,30.14,NNW,332,0.0,0.0,96,0.00,,,0.03,Wunderground v.1.15,2013-01-12 11:42:00,
2013-01-12 06:47:00,35.0,34.0,30.14,NNW,332,0.0,0.0,96,0.00,,,0.03,Wunderground v.1.15,2013-01-12 11:47:00,
2013-01-12 06:54:00,35.0,34.0,30.13,NNW,332,0.0,0.0,96,0.00,,,0.03,Wunderground v.1.15,2013-01-12 11:54:00,
2013-01-12 07:00:00,35.2,34.2,30.13,North,350,0.0,0.0,96,0.00,,,0.03,Wunderground v.1.15,2013-01-12 12:00:00,
2013-01-12 07:05:00,35.3,34.3,30.13,North,350,0.0,0.0,96,0.00,,,0.03,Wunderground v.1.15,2013-01-12 12:05:00,
2013-01-12 07:12:00,35.3,34.3,30.13,NNW,348,0.0,0.0,96,0.00,,,0.03,Wunderground v.1.15,2013-01-12 12:12:00,
2013-01-12 07:18:00,35.3,34.3,30.13,North,349,0.0,0.0,96,0.00,,,0.03,Wunderground v.1.15,2013-01-12 12:18:00,
2013-01-12 07:23:00,35.5,34.5,30.14,North,349,0.0,0.0,96,0.00,,,0.03,Wunderground v.1.15,2013-01-12 12:23:00,
2013-01-12 07:29:00,35.5,34.5,30.14,North,349,0.0,0.0,96,0.00,,,0.03,Wunderground v.1.15,2013-01-12 12:29:00,
2013-01-12 07:36:00,35.5,34.5,30.14,North,349,0.0,0.0,96,0.00,,,0.03,Wunderground v.1.15,2013-01-12 12:36:00,
2013-01-12 07:41:00,35.5,34.5,30.14,North,349,0.0,0.0,96,0.00,,,0.03,Wunderground v.1.15,2013-01-12 12:41:00,
2013-01-12 07:47:00,35.5,34.5,30.15,North,349,0.0,0.0,96,0.00,,,0.03,Wunderground v.1.15,2013-01-12 12:47:00,
2013-01-12 07:53:00,35.5,34.5,30.15,North,349,0.0,0.0,96,0.00,,,0.03,Wunderground v.1.15,2013-01-12 12:53:00,
2013-01-12 07:59:00,35.6,34.6,30.15,North,349,0.0,0.0,96,0.00,,,0.03,Wunderground v.1.15,2013-01-12 12:59:00,
2013-01-12 08:05:00,35.6,34.6,30.15,North,349,0.0,0.0,96,0.00,,,0.03,Wunderground v.1.15,2013-01-12 13:05:00,
2013-01-12 08:11:00,35.6,34.6,30.16,North,349,0.0,0.0,96,0.00,,,0.03,Wunderground v.1.15,2013-01-12 13:11:00,
2013-01-12 08:17:00,35.8,34.8,30.16,North,349,0.0,0.0,96,0.00,,,0.03,Wunderground v.1.15,2013-01-12 13:17:00,
2013-01-12 08:23:00,35.8,34.8,30.16,North,349,0.0,0.0,96,0.00,,,0.03,Wunderground v.1.15,2013-01-12 13:23:00,
2013-01-12 08:29:00,36.0,35.0,30.15,North,349,0.0,0.0,96,0.00,,,0.03,Wunderground v.1.15,2013-01-12 13:29:00,
2013-01-12 08:35:00,36.3,35.5,30.15,North,349,0.0,0.0,97,0.00,,,0.03,Wunderground v.1.15,2013-01-12 13:35:00,
2013-01-12 08:41:00,36.5,35.7,30.15,North,349,0.0,0.0,97,0.00,,,0.03,Wunderground v.1.15,2013-01-12 13:41:00,
2013-01-12 08:47:00,36.8,36.0,30.15,North,349,0.0,0.0,97,0.00,,,0.03,Wunderground v.1.15,2013-01-12 13:47:00,
2013-01-12 08:53:00,36.9,36.1,30.16,North,349,0.0,0.0,97,0.00,,,0.03,Wunderground v.1.15,2013-01-12 13:53:00,
2013-01-12 08:58:00,36.9,35.9,30.16,North,349,0.0,0.0,96,0.00,,,0.03,Wunderground v.1.15,2013-01-12 13:58:00,
2013-01-12 09:04:00,37.0,36.2,30.16,North,349,0.0,0.0,97,0.00,,,0.03,Wunderground v.1.15,2013-01-12 14:04:00,
2013-01-12 09:10:00,37.2,36.4,30.15,North,349,0.0,0.0,97,0.00,,,0.03,Wunderground v.1.15,2013-01-12 14:10:00,
2013-01-12 09:16:00,37.3,36.5,30.15,NNE,28,0.0,0.0,97,0.00,,,0.03,Wunderground v.1.15,2013-01-12 14:16:00,
2013-01-12 09:22:00,37.5,36.7,30.15,NNE,28,0.0,0.0,97,0.00,,,0.03,Wunderground v.1.15,2013-01-12 14:22:00,
2013-01-12 09:28:00,37.8,37.0,30.15,NNE,28,0.0,0.0,97,0.00,,,0.03,Wunderground v.1.15,2013-01-12 14:28:00,
2013-01-12 09:34:00,37.9,37.1,30.15,NNE,28,0.0,0.0,97,0.00,,,0.03,Wunderground v.1.15,2013-01-12 14:34:00,
2013-01-12 09:40:00,38.2,37.4,30.15,NNE,28,0.0,0.0,97,0.00,,,0.03,Wunderground v.1.15,2013-01-12 14:40:00,
2013-01-12 09:46:00,38.5,37.7,30.14,NNE,28,0.0,0.0,97,0.00,,,0.03,Wunderground v.1.15,2013-01-12 14:46:00,
2013-01-12 09:52:00,38.8,38.0,30.15,NNE,28,0.0,0.0,97,0.00,,,0.03,Wunderground v.1.15,2013-01-12 14:52:00,
2013-01-12 09:58:00,38.9,38.1,30.15,NNE,28,0.0,0.0,97,0.00,,,0.03,Wunderground v.1.15,2013-01-12 14:58:00,
2013-01-12 10:04:00,39.1,38.3,30.16,NNE,28,0.0,0.0,97,0.00,,,0.03,Wunderground v.1.15,2013-01-12 15:04:00,
2013-01-12 10:10:00,39.2,38.4,30.15,NNE,28,0.0,0.0,97,0.00,,,0.03,Wunderground v.1.15,2013-01-12 15:10:00,
2013-01-12 10:16:00,39.3,38.5,30.15,NNE,28,0.0,0.0,97,0.00,,,0.03,Wunderground v.1.15,2013-01-12 15:16:00,
2013-01-12 10:22:00,39.5,38.7,30.15,NNE,28,0.0,0.0,97,0.00,,,0.03,Wunderground v.1.15,2013-01-12 15:22:00,
2013-01-12 10:28:00,39.8,39.0,30.14,NNE,28,0.0,0.0,97,0.00,,,0.03,Wunderground v.1.15,2013-01-12 15:28:00,
2013-01-12 10:34:00,40.1,39.3,30.15,NNE,28,0.0,0.0,97,0.00,,,0.03,Wunderground v.1.15,2013-01-12 15:34:00,
2013-01-12 10:40:00,40.2,39.4,30.15,NNE,28,0.0,0.0,97,0.00,,,0.03,Wunderground v.1.15,2013-01-12 15:40:00,
2013-01-12 10:46:00,40.3,39.5,30.14,NNE,28,0.0,0.0,97,0.00,,,0.03,Wunderground v.1.15,2013-01-12 15:46:00,
2013-01-12 10:52:00,40.5,39.7,30.13,NNE,28,0.0,0.0,97,0.00,,,0.03,Wunderground v.1.15,2013-01-12 15:52:00,
2013-01-12 10:58:00,40.6,39.8,30.14,NNE,28,0.0,0.0,97,0.00,,,0.03,Wunderground v.1.15,2013-01-12 15:58:00,
2013-01-12 11:04:00,40.9,40.1,30.13,NNE,28,0.0,0.0,97,0.00,,,0.03,Wunderground v.1.15,2013-01-12 16:04:00,
2013-01-12 11:10:00,41.1,40.3,30.13,NNE,28,0.0,1.0,97,0.00,,,0.03,Wunderground v.1.15,2013-01-12 16:10:00,
2013-01-12 11:16:00,41.1,40.3,30.13,NNE,28,0.0,1.0,97,0.00,,,0.03,Wunderground v.1.15,2013-01-12 16:16:00,
2013-01-12 11:22:00,41.2,40.4,30.14,NNE,28,0.0,0.0,97,0.00,,,0.03,Wunderground v.1.15,2013-01-12 16:22:00,
2013-01-12 11:28:00,41.3,40.5,30.13,NNE,28,0.0,0.0,97,0.00,,,0.03,Wunderground v.1.15,2013-01-12 16:28:00,
2013-01-12 11:34:00,41.5,40.7,30.13,NNE,28,0.0,0.0,97,0.00,,,0.03,Wunderground v.1.15,2013-01-12 16:34:00,
2013-01-12 11:40:00,41.6,40.8,30.14,NNE,28,0.0,0.0,97,0.00,,,0.03,Wunderground v.1.15,2013-01-12 16:40:00,
2013-01-12 11:46:00,41.6,40.8,30.13,NNE,28,0.0,0.0,97,0.00,,,0.03,Wunderground v.1.15,2013-01-12 16:46:00,
2013-01-12 11:52:00,41.5,40.7,30.13,NNE,28,0.0,0.0,97,0.00,,,0.03,Wunderground v.1.15,2013-01-12 16:52:00,
2013-01-12 11:58:00,41.5,40.7,30.13,NNE,28,0.0,0.0,97,0.00,,,0.03,Wunderground v.1.15,2013-01-12 16:58:00,
2013-01-12 12:04:00,41.6,40.8,30.13,NNE,28,0.0,0.0,97,0.00,,,0.03,Wunderground v.1.15,2013-01-12 17:04:00,
2013-01-12 12:10:00,41.8,41.0,30.12,NNE,28,0.0,0.0,97,0.00,,,0.03,Wunderground v.1.15,2013-01-12 17:10:00,
2013-01-12 12:16:00,41.8,41.0,30.13,NNE,28,0.0,0.0,97,0.00,,,0.03,Wunderground v.1.15,2013-01-12 17:16:00,
2013-01-12 12:22:00,41.9,41.1,30.12,NNE,28,0.0,0.0,97,0.00,,,0.03,Wunderground v.1.15,2013-01-12 17:22:00,
2013-01-12 12:28:00,42.1,41.3,30.12,NNE,28,0.0,0.0,97,0.00,,,0.03,Wunderground v.1.15,2013-01-12 17:28:00,
2013-01-12 12:34:00,42.2,41.4,30.12,NNE,28,0.0,0.0,97,0.00,,,0.03,Wunderground v.1.15,2013-01-12 17:34:00,
2013-01-12 12:40:00,42.3,41.5,30.13,NNE,28,0.0,1.0,97,0.00,,,0.03,Wunderground v.1.15,2013-01-12 17:40:00,
2013-01-12 12:46:00,42.5,41.7,30.13,NNE,28,0.0,1.0,97,0.00,,,0.03,Wunderground v.1.15,2013-01-12 17:46:00,
2013-01-12 12:52:00,42.6,41.8,30.12,NNE,28,0.0,0.0,97,0.00,,,0.03,Wunderground v.1.15,2013-01-12 17:52:00,
2013-01-12 12:57:00,42.9,42.1,30.12,NNE,28,0.0,1.0,97,0.00,,,0.03,Wunderground v.1.15,2013-01-12 17:57:00,
2013-01-12 13:04:00,43.2,42.4,30.13,NNE,28,0.0,1.0,97,0.00,,,0.03,Wunderground v.1.15,2013-01-12 18:04:00,
2013-01-12 13:10:00,43.3,42.5,30.13,NNE,28,0.0,0.0,97,0.00,,,0.03,Wunderground v.1.15,2013-01-12 18:10:00,
2013-01-12 13:16:00,43.5,42.7,30.12,NNE,28,0.0,0.0,97,0.00,,,0.03,Wunderground v.1.15,2013-01-12 18:16:00,
2013-01-12 13:22:00,43.5,42.7,30.13,NNE,28,0.0,0.0,97,0.00,,,0.03,Wunderground v.1.15,2013-01-12 18:22:00,
2013-01-12 13:27:00,43.6,42.8,30.14,NNE,28,0.0,0.0,97,0.00,,,0.03,Wunderground v.1.15,2013-01-12 18:27:00,
2013-01-12 13:34:00,43.8,43.0,30.14,NNE,28,0.0,0.0,97,0.00,,,0.03,Wunderground v.1.15,2013-01-12 18:34:00,
2013-01-12 13:40:00,43.9,43.1,30.14,NNE,28,0.0,0.0,97,0.00,,,0.03,Wunderground v.1.15,2013-01-12 18:40:00,
2013-01-12 13:45:00,44.1,43.3,30.14,NNE,28,0.0,1.0,97,0.00,,,0.03,Wunderground v.1.15,2013-01-12 18:45:00,
2013-01-12 13:51:00,44.2,43.4,30.14,NNE,28,0.0,0.0,97,0.00,,,0.03,Wunderground v.1.15,2013-01-12 18:51:00,
2013-01-12 13:58:00,44.2,43.1,30.13,SE,128,0.0,0.0,96,0.00,,,0.03,Wunderground v.1.15,2013-01-12 18:58:00,
2013-01-12 14:04:00,44.2,43.1,30.13,SSE,151,0.0,0.0,96,0.00,,,0.03,Wunderground v.1.15,2013-01-12 19:04:00,
2013-01-12 14:10:00,44.1,43.0,30.12,SSE,151,0.0,2.0,96,0.00,,,0.03,Wunderground v.1.15,2013-01-12 19:10:00,
2013-01-12 14:15:00,43.9,42.8,30.12,SSE,151,0.0,2.0,96,0.00,,,0.03,Wunderground v.1.15,2013-01-12 19:15:00,
2013-01-12 14:22:00,43.8,42.7,30.13,SSE,151,0.0,0.0,96,0.00,,,0.03,Wunderground v.1.15,2013-01-12 19:22:00,
2013-01-12 14:28:00,43.8,42.7,30.14,SSE,151,0.0,0.0,96,0.00,,,0.03,Wunderground v.1.15,2013-01-12 19:28:00,
2013-01-12 14:33:00,43.6,42.5,30.13,SSE,151,0.0,0.0,96,0.00,,,0.03,Wunderground v.1.15,2013-01-12 19:33:00,
2013-01-12 14:39:00,43.6,42.5,30.13,SSE,151,0.0,0.0,96,0.00,,,0.03,Wunderground v.1.15,2013-01-12 19:39:00,
2013-01-12 14:46:00,43.6,42.5,30.13,SSE,151,0.0,0.0,96,0.00,,,0.03,Wunderground v.1.15,2013-01-12 19:46:00,
2013-01-12 14:51:00,43.5,42.2,30.13,SSE,151,0.0,0.0,95,0.00,,,0.03,Wunderground v.1.15,2013-01-12 19:51:00,
2013-01-12 14:57:00,43.5,42.2,30.13,SSE,151,0.0,0.0,95,0.00,,,0.03,Wunderground v.1.15,2013-01-12 19:57:00,
2013-01-12 15:03:00,43.3,42.0,30.13,SSE,151,0.0,0.0,95,0.00,,,0.03,Wunderground v.1.15,2013-01-12 20:03:00,
2013-01-12 15:09:00,43.3,42.0,30.14,SSE,151,0.0,0.0,95,0.00,,,0.03,Wunderground v.1.15,2013-01-12 20:09:00,
2013-01-12 15:15:00,43.3,42.0,30.14,SSE,151,0.0,0.0,95,0.00,,,0.03,Wunderground v.1.15,2013-01-12 20:15:00,
2013-01-12 15:21:00,43.2,41.9,30.14,SSE,151,0.0,0.0,95,0.00,,,0.03,Wunderground v.1.15,2013-01-12 20:21:00,
2013-01-12 15:27:00,43.2,41.9,30.14,SSE,151,0.0,0.0,95,0.00,,,0.03,Wunderground v.1.15,2013-01-12 20:27:00,
2013-01-12 15:33:00,43.1,41.8,30.13,SSE,151,0.0,0.0,95,0.00,,,0.03,Wunderground v.1.15,2013-01-12 20:33:00,
2013-01-12 15:39:00,43.1,41.8,30.13,SSE,151,0.0,0.0,95,0.00,,,0.03,Wunderground v.1.15,2013-01-12 20:39:00,
2013-01-12 15:45:00,43.1,41.8,30.12,SSE,151,0.0,0.0,95,0.00,,,0.03,Wunderground v.1.15,2013-01-12 20:45:00,
2013-01-12 15:51:00,42.9,41.6,30.13,SSE,151,0.0,0.0,95,0.00,,,0.03,Wunderground v.1.15,2013-01-12 20:51:00,
2013-01-12 15:57:00,42.9,41.6,30.14,SSE,151,0.0,0.0,95,0.00,,,0.03,Wunderground v.1.15,2013-01-12 20:57:00,
2013-01-12 16:03:00,42.8,41.5,30.13,SSE,151,0.0,0.0,95,0.00,,,0.03,Wunderground v.1.15,2013-01-12 21:03:00,
2013-01-12 16:09:00,42.8,41.5,30.13,SSE,151,0.0,0.0,95,0.00,,,0.03,Wunderground v.1.15,2013-01-12 21:09:00,
2013-01-12 16:15:00,42.6,41.3,30.14,SSE,151,0.0,0.0,95,0.00,,,0.03,Wunderground v.1.15,2013-01-12 21:15:00,
2013-01-12 16:21:00,42.5,41.2,30.13,SSE,151,0.0,0.0,95,0.00,,,0.03,Wunderground v.1.15,2013-01-12 21:21:00,
2013-01-12 16:27:00,42.3,41.0,30.14,SSE,151,0.0,0.0,95,0.00,,,0.03,Wunderground v.1.15,2013-01-12 21:27:00,
2013-01-12 16:33:00,42.3,41.0,30.15,SSE,151,0.0,0.0,95,0.00,,,0.03,Wunderground v.1.15,2013-01-12 21:33:00,
2013-01-12 16:39:00,42.2,40.9,30.15,SSE,151,0.0,0.0,95,0.00,,,0.03,Wunderground v.1.15,2013-01-12 21:39:00,
2013-01-12 16:45:00,42.1,40.8,30.16,SSE,151,0.0,0.0,95,0.00,,,0.03,Wunderground v.1.15,2013-01-12 21:45:00,
2013-01-12 16:51:00,41.9,40.6,30.16,SSE,151,0.0,0.0,95,0.00,,,0.03,Wunderground v.1.15,2013-01-12 21:51:00,
2013-01-12 16:56:00,41.8,40.2,30.16,SSE,151,0.0,0.0,94,0.00,,,0.03,Wunderground v.1.15,2013-01-12 21:56:00,
2013-01-12 17:02:00,41.5,39.9,30.16,SSE,151,0.0,0.0,94,0.00,,,0.03,Wunderground v.1.15,2013-01-12 22:02:00,
2013-01-12 17:08:00,41.2,39.6,30.16,SSE,151,0.0,0.0,94,0.00,,,0.03,Wunderground v.1.15,2013-01-12 22:08:00,
2013-01-12 17:14:00,41.1,39.5,30.16,SSE,151,0.0,0.0,94,0.00,,,0.03,Wunderground v.1.15,2013-01-12 22:14:00,
2013-01-12 17:20:00,40.9,39.3,30.16,SSE,151,0.0,0.0,94,0.00,,,0.03,Wunderground v.1.15,2013-01-12 22:20:00,
2013-01-12 17:26:00,40.6,39.0,30.15,SSE,151,0.0,0.0,94,0.00,,,0.03,Wunderground v.1.15,2013-01-12 22:26:00,
2013-01-12 17:32:00,40.5,38.9,30.15,SSE,151,0.0,0.0,94,0.00,,,0.03,Wunderground v.1.15,2013-01-12 22:32:00,
2013-01-12 17:38:00,40.3,39.0,30.14,SSE,151,0.0,0.0,95,0.00,,,0.03,Wunderground v.1.15,2013-01-12 22:38:00,
2013-01-12 17:44:00,40.5,39.2,30.14,SSE,151,0.0,1.0,95,0.00,,,0.03,Wunderground v.1.15,2013-01-12 22:44:00,
2013-01-12 17:50:00,40.5,39.2,30.14,SSE,152,0.0,0.0,95,0.00,,,0.03,Wunderground v.1.15,2013-01-12 22:50:00,
2013-01-12 17:56:00,40.6,39.3,30.14,SSE,152,0.0,0.0,95,0.00,,,0.03,Wunderground v.1.15,2013-01-12 22:56:00,
2013-01-12 18:02:00,40.6,39.3,30.14,SSE,152,0.0,0.0,95,0.00,,,0.03,Wunderground v.1.15,2013-01-12 23:02:00,
2013-01-12 18:08:00,40.8,39.5,30.13,SSE,152,0.0,0.0,95,0.00,,,0.03,Wunderground v.1.15,2013-01-12 23:08:00,
2013-01-12 18:14:00,40.9,39.6,30.13,SSE,152,0.0,0.0,95,0.00,,,0.03,Wunderground v.1.15,2013-01-12 23:14:00,
2013-01-12 18:20:00,40.9,39.6,30.14,SSE,152,0.0,0.0,95,0.00,,,0.03,Wunderground v.1.15,2013-01-12 23:20:00,
2013-01-12 18:26:00,40.9,39.6,30.14,SSE,152,0.0,0.0,95,0.00,,,0.03,Wunderground v.1.15,2013-01-12 23:26:00,
2013-01-12 18:32:00,40.8,39.5,30.13,SSE,152,0.0,0.0,95,0.00,,,0.03,Wunderground v.1.15,2013-01-12 23:32:00,
2013-01-12 18:38:00,40.8,39.5,30.14,SSE,152,0.0,1.0,95,0.00,,,0.03,Wunderground v.1.15,2013-01-12 23:38:00,
2013-01-12 18:44:00,40.9,39.8,30.14,South,181,0.0,2.0,96,0.00,,,0.03,Wunderground v.1.15,2013-01-12 23:44:00,
2013-01-12 18:50:00,40.9,39.8,30.14,South,181,0.0,0.0,96,0.00,,,0.03,Wunderground v.1.15,2013-01-12 23:50:00,
2013-01-12 18:56:00,40.9,39.8,30.14,South,181,0.0,0.0,96,0.00,,,0.03,Wunderground v.1.15,2013-01-12 23:56:00,
2013-01-12 19:02:00,40.8,39.7,30.14,South,181,0.0,0.0,96,0.00,,,0.03,Wunderground v.1.15,2013-01-13 00:02:00,
2013-01-12 19:08:00,40.6,39.5,30.14,South,181,0.0,0.0,96,0.00,,,0.03,Wunderground v.1.15,2013-01-13 00:08:00,
2013-01-12 19:14:00,40.5,39.2,30.13,South,181,0.0,1.0,95,0.00,,,0.03,Wunderground v.1.15,2013-01-13 00:14:00,
2013-01-12 19:20:00,40.3,39.3,30.13,South,181,0.0,0.0,96,0.00,,,0.03,Wunderground v.1.15,2013-01-13 00:20:00,
2013-01-12 19:26:00,40.3,39.3,30.13,South,181,0.0,0.0,96,0.00,,,0.03,Wunderground v.1.15,2013-01-13 00:26:00,
2013-01-12 19:32:00,40.5,39.4,30.14,SSE,167,0.0,0.0,96,0.00,,,0.03,Wunderground v.1.15,2013-01-13 00:32:00,
2013-01-12 19:38:00,40.5,39.4,30.14,SSE,167,0.0,0.0,96,0.00,,,0.03,Wunderground v.1.15,2013-01-13 00:38:00,
2013-01-12 19:44:00,40.6,39.5,30.13,SSE,167,0.0,1.0,96,0.00,,,0.03,Wunderground v.1.15,2013-01-13 00:44:00,
2013-01-12 19:50:00,40.5,39.4,30.14,SSE,167,0.0,0.0,96,0.00,,,0.03,Wunderground v.1.15,2013-01-13 00:50:00,
2013-01-12 19:56:00,40.5,39.4,30.14,SSE,167,0.0,0.0,96,0.00,,,0.03,Wunderground v.1.15,2013-01-13 00:56:00,
2013-01-12 20:02:00,40.3,39.3,30.14,SSE,167,0.0,0.0,96,0.00,,,0.03,Wunderground v.1.15,2013-01-13 01:02:00,
2013-01-12 20:08:00,40.1,39.1,30.13,SSE,167,0.0,0.0,96,0.00,,,0.03,Wunderground v.1.15,2013-01-13 01:08:00,
2013-01-12 20:14:00,39.9,38.9,30.14,SSE,167,0.0,0.0,96,0.00,,,0.03,Wunderground v.1.15,2013-01-13 01:14:00,
2013-01-12 20:20:00,39.9,38.9,30.13,SSE,167,0.0,0.0,96,0.00,,,0.03,Wunderground v.1.15,2013-01-13 01:20:00,
2013-01-12 20:26:00,39.8,38.8,30.12,SSE,167,0.0,0.0,96,0.00,,,0.03,Wunderground v.1.15,2013-01-13 01:26:00,
2013-01-12 20:32:00,39.8,38.8,30.13,SSE,167,0.0,0.0,96,0.00,,,0.03,Wunderground v.1.15,2013-01-13 01:32:00,
2013-01-12 20:38:00,39.8,38.8,30.12,SSE,167,0.0,0.0,96,0.00,,,0.03,Wunderground v.1.15,2013-01-13 01:38:00,
2013-01-12 20:44:00,39.8,38.8,30.13,SSE,167,0.0,0.0,96,0.00,,,0.03,Wunderground v.1.15,2013-01-13 01:44:00,
2013-01-12 20:50:00,39.8,38.8,30.13,SSE,167,0.0,0.0,96,0.00,,,0.03,Wunderground v.1.15,2013-01-13 01:50:00,
2013-01-12 20:56:00,39.8,38.8,30.13,SSE,167,0.0,0.0,96,0.00,,,0.03,Wunderground v.1.15,2013-01-13 01:56:00,
2013-01-12 21:02:00,39.6,38.6,30.12,SSE,167,0.0,0.0,96,0.00,,,0.03,Wunderground v.1.15,2013-01-13 02:02:00,
2013-01-12 21:08:00,39.5,38.5,30.13,SSE,167,0.0,0.0,96,0.00,,,0.03,Wunderground v.1.15,2013-01-13 02:08:00,
2013-01-12 21:14:00,39.3,38.3,30.13,SSE,167,0.0,0.0,96,0.00,,,0.03,Wunderground v.1.15,2013-01-13 02:14:00,
2013-01-12 21:20:00,39.2,38.2,30.12,SSE,167,0.0,0.0,96,0.00,,,0.03,Wunderground v.1.15,2013-01-13 02:20:00,
2013-01-12 21:25:00,39.2,38.2,30.12,SSE,167,0.0,0.0,96,0.00,,,0.03,Wunderground v.1.15,2013-01-13 02:25:00,
2013-01-12 21:32:00,39.2,38.2,30.12,SSE,167,0.0,0.0,96,0.00,,,0.03,Wunderground v.1.15,2013-01-13 02:32:00,
2013-01-12 21:38:00,39.1,38.1,30.12,SSE,167,0.0,0.0,96,0.00,,,0.03,Wunderground v.1.15,2013-01-13 02:38:00,
2013-01-12 21:43:00,39.1,38.1,30.11,SSE,167,0.0,0.0,96,0.00,,,0.03,Wunderground v.1.15,2013-01-13 02:43:00,
2013-01-12 21:50:00,39.1,38.1,30.11,SSE,167,0.0,0.0,96,0.00,,,0.03,Wunderground v.1.15,2013-01-13 02:50:00,
2013-01-12 21:56:00,38.9,37.9,30.11,SSE,167,0.0,0.0,96,0.00,,,0.03,Wunderground v.1.15,2013-01-13 02:56:00,
2013-01-12 22:01:00,38.9,37.9,30.11,SSE,167,0.0,0.0,96,0.00,,,0.03,Wunderground v.1.15,2013-01-13 03:01:00,
2013-01-12 22:07:00,38.9,37.9,30.12,SSE,167,0.0,0.0,96,0.00,,,0.03,Wunderground v.1.15,2013-01-13 03:07:00,
2013-01-12 22:14:00,38.8,37.8,30.12,SSE,167,0.0,0.0,96,0.00,,,0.03,Wunderground v.1.15,2013-01-13 03:14:00,
2013-01-12 22:19:00,38.9,37.9,30.12,SSE,167,0.0,0.0,96,0.00,,,0.03,Wunderground v.1.15,2013-01-13 03:19:00,
2013-01-12 22:25:00,38.9,38.1,30.11,SSE,167,0.0,0.0,97,0.00,,,0.03,Wunderground v.1.15,2013-01-13 03:25:00,
2013-01-12 22:32:00,38.9,37.9,30.12,SSE,167,0.0,0.0,96,0.00,,,0.03,Wunderground v.1.15,2013-01-13 03:32:00,
2013-01-12 22:37:00,38.8,37.8,30.12,SSE,167,0.0,0.0,96,0.00,,,0.03,Wunderground v.1.15,2013-01-13 03:37:00,
2013-01-12 22:43:00,38.8,37.8,30.13,SSE,167,0.0,0.0,96,0.00,,,0.03,Wunderground v.1.15,2013-01-13 03:43:00,
2013-01-12 22:49:00,38.6,37.6,30.12,SSE,167,0.0,0.0,96,0.00,,,0.03,Wunderground v.1.15,2013-01-13 03:49:00,
2013-01-12 22:55:00,38.8,38.0,30.12,SSE,167,0.0,0.0,97,0.00,,,0.03,Wunderground v.1.15,2013-01-13 03:55:00,
2013-01-12 23:01:00,38.8,37.8,30.12,SSE,167,0.0,0.0,96,0.00,,,0.03,Wunderground v.1.15,2013-01-13 04:01:00,
2013-01-12 23:07:00,38.6,37.6,30.12,SSE,167,0.0,0.0,96,0.00,,,0.03,Wunderground v.1.15,2013-01-13 04:07:00,
2013-01-12 23:13:00,38.6,37.6,30.13,SSE,167,0.0,0.0,96,0.00,,,0.03,Wunderground v.1.15,2013-01-13 04:13:00,
2013-01-12 23:19:00,38.6,37.6,30.13,SSE,167,0.0,0.0,96,0.00,,,0.03,Wunderground v.1.15,2013-01-13 04:19:00,
2013-01-12 23:25:00,38.5,37.5,30.13,SSE,167,0.0,0.0,96,0.00,,,0.03,Wunderground v.1.15,2013-01-13 04:25:00,
2013-01-12 23:31:00,38.3,37.3,30.13,SSE,167,0.0,0.0,96,0.00,,,0.03,Wunderground v.1.15,2013-01-13 04:31:00,
2013-01-12 23:37:00,38.2,37.2,30.14,SSE,167,0.0,0.0,96,0.00,,,0.03,Wunderground v.1.15,2013-01-13 04:37:00,
2013-01-12 23:45:00,38.2,37.2,30.14,SSE,167,0.0,1.0,96,0.00,,,0.03,Wunderground v.1.15,2013-01-13 04:45:00,
2013-01-12 23:51:00,38.2,37.2,30.14,SSE,167,0.0,0.0,96,0.00,,,0.03,Wunderground v.1.15,2013-01-13 04:51:00,
2013-01-12 23:57:00,38.3,37.5,30.13,SSE,167,0.0,0.0,97,0.00,,,0.03,Wunderground v.1.15,2013-01-13 04:57:00,